{"data":{"norad_id":48318,"epoch":"2026-05-25T04:29:36.373056Z","epoch_age_seconds":62440,"freshness":"FRESH","line1":"1 48318U 21036AU  26145.18722654  .00000078  00000+0  14275-4 0  9996","line2":"2 48318  53.1597 106.0704 0001104  92.6510 267.4617 15.31701283279746","mean_motion":15.31701283,"eccentricity":0.0001104,"inclination_deg":53.1597,"raan_deg":106.0704,"arg_perigee_deg":92.651,"mean_anomaly_deg":267.4617,"bstar":1.4275e-5,"rev_number":27974,"period_min":94.013109212758,"perigee_km":469.98005507404,"apogee_km":471.49228627012,"semimajor_km":6848.8731706721,"source":"CELESTRAK","updated_at":"2026-05-25T13:38:16.680918Z"}}